CAPE
0 0 0 0 0 0 0 0 0 0 0 0 0 0 2 0 0 41 860 992 1341 1493 1626 947 1189 1708 1830 1519 1346 1301 1026 958 833 733 671 804 580 706 744 387 321 306 198 131 138 66 9 8 1
0 0 0 0 0 0 0 0 0 0 0 0 0 0 0 14 18 56 804 1114 1141 1476 1498 1144 1115 1591 1728 1548 1322 1447 1292 1158 897 973 946 883 839 822 535 305 250 220 71 20 31 28 10 1 0
0 0 0 0 0 0 0 0 0 0 0 0 0 0 0 4 133 353 876 1003 1131 1516 1519 1399 997 1326 1615 1530 1520 1446 1457 1211 1113 1007 1041 1026 956 687 346 204 164 86 5 7 15 19 11 0 0
0 0 0 0 0 0 0 0 0 0 0 0 0 0 56 325 351 764 774 830 990 1489 1609 1392 1049 908 1495 1475 1511 1151 1414 1267 1209 1201 1171 1034 817 513 247 135 99 21 5 12 6 11 3 0 0
0 0 0 0 0 0 0 0 0 0 0 0 0 0 13 351 354 442 630 832 958 1413 1728 1173 982 743 964 1167 1027 1013 1159 1203 1166 1205 1039 916 655 315 120 51 12 5 3 9 10 10 0 0 0
0 0 0 0 0 0 0 0 0 0 0 1 0 8 7 384 195 526 629 688 975 1271 1423 1426 987 680 612 785 753 575 804 1035 985 1088 909 832 476 204 95 144 55 0 0 4 6 0 0 0 0
0 0 0 0 0 0 0 0 0 0 0 0 8 0 12 376 438 546 774 1015 1000 1122 1089 1324 1302 510 156 78 1 299 803 948 990 971 874 697 403 195 239 204 55 0 0 0 0 0 0 0 0
0 0 0 0 0 0 0 0 0 0 0 0 0 0 8 774 661 720 722 801 807 975 653 903 604 274 136 6 126 25 58 711 864 888 826 600 362 343 370 206 72 0 0 0 0 0 0 0 0
0 0 0 0 0 0 0 0 0 0 0 0 0 2 175 511 380 555 697 784 767 861 769 726 252 119 11 12 7 22 23 223 481 729 616 515 210 331 249 182 90 0 0 0 0 0 0 0 0
0 0 0 0 0 0 0 0 0 0 0 0 0 0 199 304 294 299 336 331 738 271 715 531 301 154 64 24 24 0 2 223 373 497 378 162 272 329 158 208 49 0 0 0 0 0 0 0 0
0 0 0 0 0 0 0 0 0 0 0 0 0 0 6 366 398 277 189 209 310 308 201 301 260 283 146 65 29 17 31 187 326 322 301 201 179 134 161 161 24 0 0 0 0 0 0 0 0
0 0 0 0 0 0 0 0 0 0 0 0 0 0 1 295 300 143 104 40 346 125 64 130 107 89 80 68 19 11 20 43 105 208 131 98 89 75 129 133 30 0 0 0 0 0 0 0 0
0 0 0 0 0 0 0 0 0 0 0 0 0 0 54 257 150 99 27 12 46 59 35 49 100 47 69 46 42 33 16 1 13 43 32 67 102 95 111 149 98 1 6 0 0 4 0 0 0
0 0 0 0 0 0 0 0 0 0 0 0 0 0 81 223 110 106 15 0 8 20 30 20 3 14 9 10 16 13 18 7 1 3 20 49 121 138 134 122 114 79 66 15 0 18 2 0 0
0 0 0 0 0 0 0 0 0 0 0 0 18 29 84 180 129 78 0 20 4 8 17 1 4 0 2 2 2 2 2 4 4 0 15 27 129 159 198 224 231 168 115 65 40 2 0 0 0
0 0 0 0 0 0 0 0 0 0 0 0 7 31 76 230 190 45 0 5 7 9 5 2 2 0 5 2 3 2 4 5 16 31 18 2 116 124 162 143 136 112 114 78 24 0 0 1 0
0 0 0 0 0 0 0 0 0 0 0 0 0 31 38 98 159 36 0 0 17 6 76 3 2 1 5 9 4 6 3 2 2 8 20 25 136 115 133 99 89 54 42 47 25 2 3 1 0
0 0 0 0 0 0 0 0 0 0 0 0 0 0 38 73 55 32 0 0 0 10 11 5 2 2 0 5 4 11 6 2 1 0 39 91 75 89 85 91 81 33 18 13 19 3 0 1 0
0 0 0 0 0 0 0 0 0 0 0 0 0 0 29 86 92 10 0 0 0 3 13 5 2 2 0 3 1 1 5 5 8 5 41 61 49 71 60 91 127 118 38 23 35 10 0 0 0
0 0 0 0 0 0 0 0 0 0 0 0 0 5 8 44 90 0 0 0 0 0 4 2 3 2 1 0 1 4 2 2 1 1 33 66 61 130 98 112 134 158 115 103 76 68 38 2 0
0 0 0 0 0 0 0 0 0 0 0 0 0 0 2 23 98 29 0 0 0 0 2 2 3 2 1 0 0 10 3 3 0 4 10 25 63 105 143 171 152 117 182 153 158 160 113 56 5
0 0 0 0 0 0 0 0 0 0 0 0 0 0 0 0 33 107 3 0 0 0 1 14 13 4 1 3 1 1 0 0 0 0 4 12 12 88 104 92 100 159 136 127 163 181 148 131 89
0 0 0 0 0 0 0 0 0 0 0 0 0 0 0 0 5 65 65 6 0 0 0 0 10 11 5 4 3 0 0 4 14 1 5 7 0 51 75 75 49 107 180 140 201 197 178 185 83
0 0 0 0 0 0 0 0 0 0 0 0 0 0 0 0 0 32 82 51 0 0 0 0 2 9 10 3 2 1 0 3 8 9 5 4 5 23 36 46 56 39 132 153 162 160 227 191 170
0 0 0 0 0 0 0 0 0 0 0 0 0 0 0 0 0 8 74 68 1 0 0 0 1 1 5 5 4 2 1 1 1 1 0 0 0 6 15 51 69 59 52 85 50 162 162 175 128
0 0 0 0 0 0 0 0 0 0 0 0 0 0 0 0 0 17 60 83 23 0 0 0 0 0 2 4 3 6 3 8 2 1 0 0 0 0 12 59 49 61 29 36 55 51 51 45 50
0 0 0 0 0 1 2 0 0 0 0 0 0 0 0 0 0 15 53 112 55 6 0 0 0 0 0 3 3 3 3 2 2 1 0 0 0 4 27 31 49 56 67 75 54 23 5 41 36
0 0 0 0 1 1 2 8 7 0 0 0 0 1 0 0 0 6 63 135 107 37 0 0 0 0 0 0 3 5 4 6 4 0 2 0 0 10 8 21 11 14 17 24 47 21 13 29 53
0 0 6 0 0 0 4 3 7 0 2 11 7 2 1 0 0 11 86 156 199 127 38 2 0 0 0 0 0 5 2 8 12 7 8 1 3 1 0 0 0 0 0 0 11 29 20 23 28
2 0 5 4 2 2 0 0 0 0 0 0 0 17 23 0 0 57 136 211 250 227 143 46 7 0 0 4 4 4 3 5 3 2 5 8 2 0 4 2 0 0 0 1 1 0 3 9 0
CIN
-0 -0 -0 -0 -0 -0 -0 -0 -0 -0 -0 -0 -0 -0 -6 -0 -0 -4 -46 -102 -69 -18 -16 -120 -85 -4 -0 -8 -22 -22 -96 -95 -60 -32 -42 -7 -5 -0 -0 -21 -33 -3 -3 -16 -16 -20 -12 -0 -0
-0 -0 -0 -0 -0 -0 -0 -0 -0 -0 -0 -0 -0 -0 -0 -2 -11 -6 -13 -77 -78 -21 -13 -37 -99 -11 -0 -1 -1 -9 -23 -31 -75 -15 -9 -4 -1 -1 -1 -65 -39 -23 -25 -67 -47 -88 -0 -0 -0
-0 -0 -0 -0 -0 -0 -0 -0 -0 -0 -0 -0 -0 -0 -0 -2 -15 -27 -75 -91 -76 -30 -2 -3 -80 -27 -2 -1 -0 -3 -4 -23 -25 -24 -9 -3 -1 -1 -8 -74 -32 -49 -114 -0 -0 -0 -0 -0 -0
-0 -0 -0 -0 -0 -0 -0 -0 -0 -0 -0 -0 -0 -0 -6 -32 -28 -52 -72 -88 -58 -21 -1 -8 -43 -51 -3 -7 -10 -9 -4 -0 -3 -3 -3 -0 -3 -2 -39 -16 -72 -87 -1 -1 -0 -0 -0 -0 -0
-0 -0 -0 -0 -0 -0 -0 -0 -0 -0 -0 -0 -0 -0 -3 -31 -79 -90 -77 -58 -30 -6 -1 -23 -39 -69 -48 -10 -14 -9 -2 -0 -1 -0 -7 -0 -7 -15 -22 -26 -83 -131 -1 -0 -0 -0 -0 -0 -0
-0 -0 -0 -0 -0 -0 -0 -0 -0 -0 -0 -2 -0 -2 -2 -58 -71 -56 -83 -73 -30 -19 -7 -0 -30 -33 -36 -5 -9 -9 -4 -10 -23 -10 -9 -8 -10 -30 -38 -1 -32 -11 -0 -1 -0 -0 -0 -0 -0
-0 -0 -0 -0 -0 -0 -0 -0 -0 -0 -0 -0 -3 -0 -4 -26 -91 -87 -61 -32 -26 -18 -19 -6 -0 -83 -165 -82 -2 -57 -2 -6 -5 -6 -11 -23 -15 -33 -6 -1 -42 -0 -0 -0 -0 -0 -0 -0 -0
-0 -0 -0 -0 -0 -0 -0 -0 -0 -0 -0 -0 -0 -0 -3 -21 -88 -93 -40 -49 -55 -27 -56 -11 -41 -125 -136 -13 -20 -12 -41 -2 -3 -1 -1 -18 -22 -13 -3 -2 -32 -0 -0 -0 -0 -0 -0 -0 -0
-0 -0 -0 -0 -0 -0 -0 -0 -0 -0 -0 -0 -0 -11 -20 -77 -107 -68 -32 -44 -44 -16 -10 -0 -93 -150 -210 -184 -91 -41 -30 -1 -18 -3 -4 -4 -29 -3 -48 -1 -19 -0 -0 -0 -0 -0 -0 -0 -0
-0 -0 -0 -0 -0 -0 -0 -0 -0 -0 -0 -0 -0 -0 -54 -87 -65 -34 -28 -2 -21 -74 -1 -0 -37 -58 -154 -155 -95 -0 -8 -1 -1 -1 -3 -6 -4 -3 -21 -2 -20 -0 -0 -0 -0 -0 -0 -0 -0
-0 -0 -0 -0 -0 -0 -0 -0 -0 -0 -0 -2 -0 -0 -15 -51 -59 -55 -69 -15 -3 -4 -13 -0 -3 -12 -57 -61 -6 -5 -8 -0 -0 -1 -0 -2 -2 -8 -9 -3 -14 -0 -0 -0 -0 -0 -0 -0 -0
-0 -0 -0 -0 -0 -0 -0 -0 -0 -0 -0 -0 -0 -0 -4 -53 -51 -71 -30 -63 -3 -61 -6 -0 -9 -5 -43 -26 -3 -19 -16 -6 -3 -5 -32 -7 -12 -4 -1 -1 -3 -0 -0 -0 -0 -0 -0 -0 -0
-0 -0 -0 -0 -0 -0 -0 -0 -0 -0 -0 -0 -0 -0 -75 -74 -82 -97 -136 -82 -48 -51 -5 -3 -0 -22 -13 -36 -19 -1 -37 -0 -10 -10 -15 -10 -12 -2 -1 -3 -1 -3 -10 -0 -0 -1 -0 -0 -0
-0 -0 -0 -0 -0 -0 -0 -0 -0 -0 -0 -0 -3 -0 -87 -81 -91 -110 -182 -1 -93 -24 -2 -7 -0 -17 -19 -14 -22 -13 -4 -16 -46 -17 -32 -14 -13 -3 -3 -10 -2 -1 -2 -3 -0 -1 -2 -0 -0
-0 -0 -0 -0 -0 -0 -0 -0 -0 -0 -0 -0 -54 -60 -79 -127 -134 -143 -0 -165 -0 -0 -0 -0 -0 -0 -0 -1 -0 -3 -29 -1 -0 -0 -9 -6 -11 -14 -5 -1 -0 -0 -2 -1 -4 -4 -0 -0 -0
-0 -0 -0 -0 -0 -0 -0 -0 -0 -0 -0 -0 -27 -38 -58 -115 -140 -178 -0 -176 -176 -53 -7 -0 -0 -0 -1 -0 -0 -0 -11 -4 -0 -0 -6 -19 -15 -16 -4 -4 -2 -2 -2 -2 -36 -0 -0 -0 -0
-0 -0 -0 -0 -0 -0 -0 -0 -0 -0 -0 -0 -1 -27 -35 -66 -121 -187 -0 -0 -200 -61 -100 -0 -0 -0 -0 -0 -0 -0 -0 -0 -1 -2 -13 -4 -4 -14 -9 -35 -1 -3 -35 -23 -31 -5 -35 -1 -0
-0 -0 -0 -0 -0 -0 -0 -0 -0 -0 -0 -0 -0 -1 -21 -67 -89 -172 -0 -0 -0 -229 -0 -0 -0 -1 -0 -0 -0 -0 -0 -0 -1 -2 -0 -1 -4 -16 -23 -65 -45 -62 -85 -96 -49 -28 -14 -1 -0
-0 -0 -0 -0 -0 -0 -0 -0 -0 -0 -0 -0 -0 -0 -15 -60 -63 -89 -0 -0 -0 -2 -0 -0 -0 -0 -0 -0 -0 -0 -0 -0 -0 -24 -8 -3 -25 -15 -18 -31 -40 -35 -34 -65 -44 -56 -0 -0 -0
-0 -0 -0 -0 -0 -0 -0 -0 -0 -0 -0 -0 -0 -3 -8 -23 -76 -0 -0 -0 -0 -1 -1 -0 -0 -0 -0 -0 -1 -0 -0 -0 -3 -17 -15 -4 -11 -3 -9 -12 -33 -10 -7 -11 -19 -14 -42 -47 -0
-0 -0 -0 -0 -0 -0 -0 -0 -0 -0 -0 -0 -0 -0 -1 -11 -68 -99 -0 -0 -0 -0 -1 -1 -0 -0 -0 -0 -0 -0 -0 -0 -1 -12 -44 -44 -20 -1 -14 -11 -10 -13 -2 -2 -4 -7 -9 -15 -48
-0 -0 -0 -0 -0 -0 -0 -0 -0 -0 -0 -0 -0 -0 -0 -0 -30 -96 -48 -0 -0 -0 -1 -1 -1 -0 -0 -0 -0 -0 -0 -0 -0 -0 -9 -58 -56 -15 -15 -72 -44 -11 -10 -7 -4 -6 -22 -17 -12
-0 -0 -0 -0 -0 -0 -0 -0 -0 -0 -0 -0 -0 -0 -0 -0 -29 -91 -128 -241 -0 -0 -0 -1 -1 -0 -0 -0 -0 -0 -0 -0 -1 -0 -1 -4 -0 -7 -11 -27 -23 -9 -2 -5 -5 -4 -6 -9 -16
-0 -0 -0 -0 -0 -0 -0 -0 -0 -0 -0 -0 -0 -0 -0 -0 -0 -42 -107 -188 -0 -0 -0 -0 -2 -1 -0 -0 -0 -0 -0 -0 -1 -0 -1 -9 -1 -9 -9 -3 -31 -43 -30 -8 -28 -13 -8 -33 -21
-0 -0 -0 -0 -0 -0 -0 -0 -0 -0 -0 -0 -0 -0 -0 -0 -0 -26 -110 -160 -139 -0 -0 -0 -1 -1 -0 -0 -0 -0 -0 -1 -0 -0 -0 -0 -0 -7 -4 -2 -18 -44 -38 -20 -5 -36 -41 -34 -25
-0 -0 -0 -0 -0 -0 -0 -0 -0 -0 -0 -0 -0 -0 -0 -0 -0 -79 -95 -145 -246 -0 -0 -0 -0 -0 -1 -1 -0 -0 -0 -0 -0 -1 -0 -0 -0 -0 -10 -6 -12 -24 -44 -47 -9 -30 -35 -36 -32
-0 -0 -0 -0 -1 -12 -2 -0 -0 -0 -0 -0 -0 -0 -0 -0 -0 -88 -84 -129 -175 -314 -0 -0 -0 -0 -0 -0 -1 -0 -1 -0 -0 -0 -0 -0 -0 -7 -5 -13 -18 -15 -23 -41 -30 -33 -53 -36 -54
-0 -0 -0 -0 -2 -5 -8 -8 -5 -0 -0 -1 -0 -2 -0 -0 -0 -27 -84 -114 -159 -208 -0 -0 -0 -0 -0 -1 -0 -0 -1 -0 -1 -1 -0 -0 -0 -1 -2 -7 -43 -63 -51 -35 -17 -27 -41 -28 -23
-0 -0 -5 -2 -0 -0 -5 -6 -4 -0 -4 -4 -8 -5 -2 -0 -0 -18 -64 -97 -142 -163 -239 -250 -0 -0 -0 -0 -0 -0 -0 -1 -0 -2 -1 -1 -0 -0 -0 -0 -0 -22 -0 -48 -39 -23 -14 -12 -4
-3 -0 -7 -6 -14 -4 -0 -3 -0 -0 -0 -0 -0 -3 -4 -0 -0 -26 -58 -78 -114 -157 -209 -276 -392 -0 -0 -404 -411 -436 -1 -1 -0 -1 -1 -0 -0 -0 -0 -0 -0 -0 -0 -9 -15 -6 -12 -2 -0
Wind_Speed
8 8 8 10 14 11 12 15 16 14 15 15 18 17 24 24 25 23 18 19 18 11 7 6 2 3 7 8 6 6 8 9 7 6 6 5 5 4 4 6 8 8 8 8 9 11 13 15 15
6 8 9 13 14 12 17 12 15 17 17 16 15 16 15 19 19 20 20 18 16 11 4 4 4 6 8 8 9 7 9 9 8 8 9 7 6 4 4 5 8 7 7 7 9 12 14 15 15
7 7 13 10 8 14 20 16 16 15 14 13 15 13 17 19 18 20 18 19 15 11 4 2 4 5 9 10 11 10 10 11 10 12 9 8 6 6 4 5 8 8 8 10 12 13 13 13 13
8 9 10 14 13 15 15 19 17 14 11 12 16 16 14 16 18 20 21 20 15 13 8 4 7 9 9 9 13 12 12 12 11 12 12 8 8 6 5 5 6 8 9 12 13 12 12 12 14
8 13 12 14 12 14 14 18 17 13 15 17 14 16 16 15 17 18 18 19 18 13 11 7 9 13 13 12 13 16 17 15 13 13 13 10 8 7 6 5 6 7 9 11 12 11 11 12 14
8 8 15 16 13 10 14 16 14 12 11 8 11 17 20 15 18 17 17 17 18 15 13 11 9 17 24 32 32 19 20 19 17 16 13 13 9 7 7 7 7 8 10 11 10 10 11 12 13
10 12 14 22 24 16 13 13 11 9 12 11 15 17 21 15 15 16 17 17 17 14 13 13 12 13 20 34 37 24 17 17 17 15 14 13 12 10 9 9 7 8 11 10 9 9 10 10 10
13 14 20 14 21 16 7 13 13 12 12 15 18 12 23 17 15 16 16 17 15 13 13 9 6 5 12 22 42 30 34 21 18 15 13 12 14 9 12 10 8 8 10 9 9 9 8 8 8
17 19 19 15 15 15 11 16 7 12 8 5 9 12 23 16 14 14 15 16 18 16 11 7 5 1 11 25 24 29 44 24 19 16 14 12 10 11 11 10 9 9 8 8 8 8 8 8 9
14 17 14 25 25 17 16 16 19 11 3 0 2 11 14 14 13 15 15 17 17 15 11 9 3 2 1 10 15 33 38 22 18 15 15 13 11 10 11 11 11 10 8 7 7 8 9 10 11
13 14 32 26 22 26 24 24 18 12 6 10 18 20 14 13 13 14 14 16 20 14 8 9 2 3 5 17 13 29 28 15 14 14 14 11 12 10 9 14 12 10 8 6 7 8 7 7 8
22 18 19 34 24 21 27 29 26 14 3 11 11 16 15 9 11 13 14 17 19 13 5 5 3 5 6 13 9 18 23 15 15 17 16 12 15 12 12 15 13 10 8 7 6 4 2 4 5
23 18 28 19 21 27 30 34 28 12 4 2 7 12 8 8 10 12 16 17 15 11 7 7 5 5 5 6 4 11 15 18 20 17 16 15 16 14 17 18 16 13 10 8 6 2 2 2 3
34 27 28 27 19 28 31 36 31 13 5 5 3 4 5 7 9 10 14 16 15 11 11 7 6 6 6 8 9 11 15 16 17 19 22 20 18 15 16 15 15 15 12 10 7 3 2 3 3
36 38 30 10 12 36 31 37 33 22 5 3 3 3 5 6 7 8 11 14 13 11 10 9 6 6 5 2 2 8 10 15 20 20 22 22 21 20 15 14 16 16 13 11 9 4 2 1 1
31 32 36 24 11 26 27 38 33 4 4 4 4 4 3 4 6 8 10 11 12 11 9 9 8 6 6 4 3 7 11 12 16 19 19 21 20 19 16 12 15 16 15 13 9 6 3 2 1
31 29 28 32 27 20 19 32 25 10 8 4 5 6 8 4 5 7 8 10 11 10 9 8 9 7 5 4 4 5 5 8 16 18 19 19 18 19 19 12 12 16 14 15 11 9 5 4 2
29 26 33 33 16 13 29 30 34 12 10 1 8 6 10 9 3 6 7 9 9 9 10 9 7 7 4 4 4 4 4 9 15 16 14 15 17 15 14 12 14 17 15 14 14 8 7 5 4
40 35 32 28 26 21 30 34 29 33 6 2 6 8 10 12 5 5 7 8 8 8 7 7 6 6 3 1 2 3 6 12 13 16 16 15 15 15 12 13 14 14 16 14 15 13 10 8 5
43 40 34 33 21 25 33 37 33 32 34 13 8 7 10 11 10 5 6 7 8 7 7 6 5 5 6 6 4 3 7 9 12 17 18 14 14 14 15 13 12 16 17 16 14 13 10 8 8
36 36 38 36 26 25 32 38 35 34 28 15 5 17 11 10 12 10 9 7 7 8 8 7 7 8 11 11 7 4 5 7 11 14 22 17 17 19 15 13 13 17 21 15 13 12 9 8 8
38 31 38 36 33 35 29 38 33 19 8 7 7 10 14 9 11 12 13 9 9 10 10 10 10 12 17 21 16 14 13 16 15 20 14 23 16 32 17 15 12 13 18 11 10 8 9 9 7
40 33 33 33 37 35 37 31 31 28 24 13 11 12 10 12 10 14 14 12 10 11 11 11 11 14 20 21 16 15 13 11 12 20 17 15 25 26 23 18 19 15 13 16 13 12 11 12 10
30 28 32 30 33 37 36 34 30 23 13 12 18 13 5 6 9 11 11 11 8 10 11 10 11 14 17 19 19 20 18 11 11 14 20 20 20 19 23 21 18 18 15 15 15 11 11 11 12
30 19 21 25 32 34 35 31 34 23 16 21 22 14 5 2 5 10 12 11 10 9 10 11 12 13 15 17 18 20 19 20 23 22 21 21 21 18 20 19 17 18 19 17 18 16 15 14 17
22 21 22 26 31 31 27 22 25 17 16 16 17 16 15 4 2 8 12 14 11 10 10 11 12 14 14 16 18 16 18 16 19 21 22 26 20 20 17 20 19 21 21 18 18 16 16 16 18
26 28 33 35 26 27 18 26 30 21 18 16 14 15 15 6 2 5 11 13 13 11 11 12 11 13 15 14 16 18 17 16 16 17 19 24 29 30 29 27 24 21 21 22 21 19 18 19 20
39 25 23 24 25 30 25 20 18 12 14 15 16 17 20 24 6 4 8 11 13 11 10 11 10 11 13 15 15 16 17 17 15 16 17 22 27 26 21 20 21 22 22 23 21 21 22 20 19
35 35 26 26 27 32 33 29 22 20 15 13 15 20 21 18 14 10 6 7 9 7 7 9 12 10 11 11 13 14 15 18 14 15 15 19 22 23 21 19 18 19 20 21 20 20 18 20 20
25 33 29 27 25 34 31 25 12 11 15 19 19 20 19 17 18 10 7 5 7 8 7 7 9 11 9 9 10 12 14 17 17 17 13 16 18 21 23 21 20 22 22 21 22 23 22 22 23
Wind_Direction
22 40 46 16 357 1 340 347 344 347 345 345 338 337 325 329 323 323 345 343 348 13 44 114 145 205 206 206 199 197 176 167 165 155 143 159 135 139 116 112 100 92 86 83 77 73 72 71 70
38 22 17 355 345 336 347 353 347 339 339 350 346 343 341 334 343 338 336 347 350 358 23 127 157 167 172 204 213 201 153 181 173 148 138 161 156 161 156 124 101 102 95 87 81 80 77 76 75
6 11 345 342 323 330 332 353 337 343 353 359 356 0 343 342 347 339 344 341 342 343 327 288 210 207 175 183 190 194 193 161 178 140 150 148 175 193 171 123 112 105 100 93 89 84 81 78 76
4 356 340 328 328 335 332 335 335 343 358 7 354 346 357 346 343 337 337 340 339 330 317 270 245 247 248 212 188 193 194 171 179 145 137 176 172 182 179 154 127 115 106 97 93 87 84 79 81
328 332 315 308 327 331 337 324 332 344 343 350 0 348 349 354 350 346 345 342 334 330 316 296 260 245 244 233 220 200 184 177 163 150 139 150 192 186 184 174 139 125 109 99 94 92 87 83 85
310 318 313 318 323 335 334 327 337 347 354 12 5 345 341 349 349 352 350 348 336 330 318 293 272 266 258 255 241 226 176 161 160 152 146 138 151 176 184 187 149 126 111 102 99 94 90 87 88
285 296 306 314 315 325 330 331 345 354 353 359 359 347 339 346 4 3 351 346 341 338 329 305 288 272 265 258 264 246 176 173 166 162 153 144 140 150 174 190 160 133 111 111 104 97 90 89 89
288 297 302 304 314 316 331 327 339 345 353 350 345 6 336 351 1 1 354 346 343 339 333 322 310 276 265 273 262 252 243 184 180 177 163 155 141 176 200 185 170 144 122 115 109 99 92 93 85
291 290 294 306 311 312 320 318 345 348 354 12 3 352 332 355 2 4 0 354 343 337 333 326 318 232 295 282 252 260 245 193 170 176 166 163 167 155 165 196 177 152 139 122 111 101 98 93 86
267 282 284 299 301 304 305 316 320 341 15 47 3 351 353 358 4 359 355 346 346 338 334 324 332 102 26 300 263 255 247 197 164 175 173 164 181 172 177 192 180 169 152 131 114 105 102 98 93
260 233 274 298 302 287 289 297 323 336 346 9 352 342 348 358 4 4 2 350 343 345 336 316 3 20 7 310 278 243 247 211 189 186 182 190 185 180 170 200 189 188 163 149 124 114 103 96 98
267 275 284 277 299 291 283 282 298 325 304 347 359 348 352 16 14 9 7 357 351 354 14 324 354 9 4 308 293 246 235 223 216 203 209 187 207 199 196 200 195 189 197 164 146 132 108 101 89
270 273 281 294 294 281 276 266 292 308 236 7 9 354 17 25 26 20 12 10 11 30 65 103 98 56 27 347 21 244 247 248 217 216 218 218 219 207 204 206 206 204 207 200 188 224 133 108 69
262 276 281 272 294 278 274 250 237 310 349 22 26 20 40 39 38 35 28 24 24 59 91 64 84 67 25 299 289 260 254 235 222 221 216 224 219 215 208 201 205 211 212 218 222 225 164 115 89
258 261 280 252 278 262 275 251 236 220 201 19 100 100 31 56 56 52 46 32 46 68 82 86 62 21 20 27 333 286 268 237 227 221 222 213 214 220 214 204 209 218 214 222 233 221 181 198 248
261 265 263 279 280 280 273 259 265 225 347 139 135 134 83 68 99 64 66 61 62 82 90 98 86 68 76 17 345 314 305 217 204 201 202 205 209 221 219 210 219 225 228 231 232 214 215 226 221
257 264 269 271 279 280 277 272 253 322 331 163 156 154 159 110 83 80 75 93 90 81 90 88 99 92 69 52 21 17 8 189 191 197 211 208 208 216 227 210 221 226 226 234 237 240 247 261 240
257 263 264 267 285 281 268 275 260 315 317 165 180 155 169 164 91 86 82 87 101 87 99 105 97 92 70 48 61 39 83 141 182 192 194 198 210 207 216 216 225 229 230 234 242 246 256 265 270
248 257 266 270 279 276 270 269 275 247 304 2 169 169 169 173 124 52 88 84 92 90 91 94 100 107 116 189 137 132 143 141 188 213 218 204 201 205 208 226 226 232 235 236 247 253 257 268 274
248 256 262 261 284 279 270 266 271 268 263 318 180 162 169 164 152 105 97 99 108 98 85 76 100 115 145 184 218 193 156 159 178 221 231 221 204 199 192 212 212 234 241 246 244 251 257 268 271
255 259 252 256 278 280 272 263 270 267 280 300 318 199 174 163 165 148 140 122 113 119 111 91 91 118 137 152 218 208 180 173 171 225 233 229 228 223 192 208 225 237 247 244 244 247 251 262 273
254 258 252 259 266 267 276 264 270 287 236 265 202 188 186 163 159 159 157 142 131 134 120 118 103 127 141 151 160 166 165 169 187 170 233 233 206 235 229 210 219 234 247 227 217 230 248 265 268
251 258 261 261 262 266 261 273 276 280 280 293 302 196 184 174 159 163 161 151 137 128 120 119 112 127 147 150 146 162 172 186 183 182 178 185 179 184 182 193 204 203 232 250 249 250 250 268 271
258 259 262 263 262 263 255 262 277 289 290 306 309 308 168 161 164 160 155 148 132 126 124 116 115 129 142 150 154 161 167 184 192 200 189 189 188 193 189 195 206 210 235 240 248 238 241 260 277
252 257 262 262 256 262 247 262 259 283 301 293 298 315 337 354 168 162 158 155 145 136 129 125 129 130 138 152 157 164 167 171 176 178 185 194 200 216 212 212 217 217 216 230 252 247 256 263 272
247 243 253 264 263 264 261 271 277 286 302 309 314 306 305 349 310 167 166 164 159 150 144 138 136 143 141 151 161 162 169 170 172 180 182 186 201 207 218 207 210 201 205 226 228 243 250 262 269
249 245 251 265 274 265 264 263 269 281 295 310 313 314 310 299 243 186 170 168 165 161 157 152 144 149 154 153 161 168 168 168 173 175 180 185 189 191 191 193 200 203 203 207 212 224 239 258 271
246 262 247 254 264 258 262 273 280 295 292 308 312 318 313 288 279 220 182 174 171 167 160 159 157 154 156 160 162 168 173 176 174 175 180 187 191 191 193 200 203 206 212 212 219 226 231 252 255
244 249 257 260 259 261 261 270 279 278 297 307 317 321 318 317 303 286 228 192 185 183 177 169 168 166 165 167 168 171 175 179 180 182 185 188 190 196 200 206 212 216 223 225 235 237 241 249 247
248 250 253 256 267 257 263 267 297 297 296 303 305 316 327 326 310 300 276 234 209 196 201 200 188 184 188 184 183 181 182 186 188 192 199 194 196 200 203 205 209 212 216 226 233 237 246 243 252